STARLINK-1123, 44930

Orbit data source: Space-Track

STARLINK-1123, 44930 is a payload satellite owned by SpaceX/Seattle (US) in LEO that was launched on Tue, 07 Jan 2020 UTC via an FALCON 9 launch vehicle from the Air Force Eastern Test Range (AFETR). Payload-class satellites include a variety of spacecraft equipped with specific instruments for various scientific and technological missions. These include communications satellites like Starlink; space stations such as the ISS; scientific satellites like the Hubble; Earth observation satellites from companies like Planet Labs, Umbra, and HawkEye 360; GPS; miniature CubeSats for education and research; and military/defense satellites.

Loading next visibility...
Identifier
44930, 2020-001S
Orbit
LEO
Country
Flag of USUS
Related business
Manufacturer
SpaceX/Seattle
Mission
Operational Commercial Communications
Bus & Motor
STARLINK, Unknown motor
Mass
260 kg wet, ~248 kg dry
Launch date (UTC)
2020-01-07 (6 years ago)
Launch vehicle
FALCON 9
Launch site
Air Force Eastern Test Range (AFETR)
Object type
Payload
Rocket body
Debris
Shape & HBR
Box + 1 Pan, 10.1 m
Radar Cross Section
13.562 m², Large (>1 m²)

Expand to show TLE details & history
Last TLE update: 1 day ago

TLE from 1 day ago
0 STARLINK-1123
1 44930U 20001S   25287.69383043 -.00000418  00000-0 -91462-5 0  9995
2 44930  53.0537 282.0210 0001486  85.2491 274.8667 15.06401374317842
Epoch: 2025-10-14T16:39Z
TLE epoch observation values (Epoch: 2025-10-14T16:39:06.949Z)
Latitude
-0.00006°
Longitude
8.76341°
Altitude
547.999 km
Speed
7.589 km/s
True Right ascension
18h 48m 05s
True Declination
0° 00' 00"
Sunlit
Object was in daylight at epoch
Visualization orbit readout
Latitude
Unknown
Longitude
Unknown
Altitude
Unknown
Speed
Unknown
Apparent Right ascension
Unknown
Apparent Declination
Unknown
Sunlit
N/A
Visualization observer readout
Local Sidereal Time
11:52:05
Azimuth
Unknown
Elevation
Unknown
Doppler factor
Unknown
Orbital elements
Apogee altitude
548.507 km
Perigee altitude
546.449 km
Semi-major axis
6,925.615 km
Eccentricity
0.00015
Inclination
53.0537°
RAAN
282.021°
Arg. of periapsis
85.2491°
True anomaly
274.84973°
Mean anomaly
274.8667°
Eccentric anomaly
274.85822°
Mean motion
3.76579 °/min
Orbital period
95.6 mins
BSTAR
-0.0000091462
Loading maneuver chart data...
Computing Atmospheric mass density...

Documentation

Showing up to 5 results
|